Location: Staunton
(38.1490°N, 79.0720°W)
Time: 17:46:46
(UTC-04:00)

ISS - Pass Details

Date: 29 March 2017
Orbit: 399 x 409 km, 51.6° (Epoch: 26 March)

Event Time Altitude Azimuth Distance (km) Brightness Sun altitude
Rises 21:50:45 0° 278° (W) 2,307 1.1 -25.9°
Reaches altitude 10° 21:53:34 10° 305° (NW) 1,453 0.0 -26.4°
Maximum altitude 21:55:23 14° 339° (NNW) 1,238 -0.8 -26.7°
Enters shadow 21:55:46 14° 347° (NNW) 1,248 -0.9 -26.7°
